Pecos, TX

4:30 PM CDT on May 24, 2018 (GMT -0500)
Pecos Municipal

Weather History for KPEQ - December, 2012

Change the Weather History Date:

Thursday, December 6, 2012

  Actual Average Record
Temperature  
Mean Temperature 57 °F -  
Max Temperature 82 °F 66 °F 82 °F (2007)
Min Temperature 32 °F 30 °F 15 °F (1959)
Degree Days  
Heating Degree Days 8    
Growing Degree Days 7 (Base 50)    
Moisture  
Dew Point 27 °F    
Average Humidity 43    
Maximum Humidity 72    
Minimum Humidity 14    
Precipitation  
Precipitation 0.00 in - - ()
Sea Level Pressure  
Sea Level Pressure 29.89 in    
Wind  
Wind Speed 4 mph (WSW)    
Max Wind Speed 18 mph    
Max Gust Speed 23 mph    
Visibility 10 miles    
Events      
Averages and records for this station are not official NWS values.
T = Trace of Precipitation, MM = Missing Value Source: NWS Daily Summary

Daily Weather History Graph

Daily Weather History Graph

Search for Another Location

Airport or City:

Astronomy

Dec. 06, 2012 Rise Set
Actual Time 7:39 AM CST 5:50 PM CST
Civil Twilight 7:13 AM CST 6:17 PM CST
Nautical Twilight 6:42 AM CST 6:47 PM CST
Astronomical Twilight 6:13 AM CST 7:17 PM CST
Moon 12:23 AM CST (12/6) 12:55 PM CST (12/6)
Length of Visible Light 11h 04m
Length of Day
10h 11m
Waning Gibbous, 49% of the Moon is Illuminated
Dec 6
Waning Gibbous
Dec 13
New
Dec 19
First Quarter
Dec 28
Full
Jan 4
Last Quarter

Hourly Weather History & Observations

Time (CST) Temp. Windchill Dew Point Humidity Pressure Visibility Wind Dir Wind Speed Gust Speed Precip Events Conditions
12:15 AM 38.3 °F 33.9 °F 26.8 °F 63% 29.98 in 10.0 mi SE 5.8 mph - N/A   Clear
12:35 AM 38.5 °F 35.0 °F 27.1 °F 64% 29.97 in 10.0 mi South 4.6 mph - N/A   Clear
12:55 AM 38.5 °F 36.1 °F 26.8 °F 63% 29.96 in 10.0 mi SSE 3.5 mph - N/A   Clear
1:15 AM 39.4 °F 37.2 °F 27.3 °F 62% 29.96 in 10.0 mi SSE 3.5 mph - N/A   Clear
2:35 AM 38.7 °F - 27.3 °F 64% 29.95 in 10.0 mi Calm Calm - N/A   Clear
2:55 AM 37.8 °F - 26.6 °F 64% 29.95 in 10.0 mi Calm Calm - N/A   Clear
3:15 AM 36.1 °F 33.5 °F 26.1 °F 67% 29.95 in 10.0 mi SE 3.5 mph - N/A   Clear
3:35 AM 36.1 °F 33.5 °F 26.4 °F 68% 29.94 in 10.0 mi ESE 3.5 mph - N/A   Clear
3:55 AM 36.5 °F 32.7 °F 26.6 °F 67% 29.93 in 10.0 mi South 4.6 mph - N/A   Clear
4:15 AM 36.0 °F 33.3 °F 26.2 °F 68% 29.93 in 10.0 mi South 3.5 mph - N/A   Clear
4:35 AM 35.1 °F - 25.3 °F 68% 29.92 in 10.0 mi Calm Calm - N/A   Clear
4:55 AM 34.5 °F 31.6 °F 25.7 °F 70% 29.91 in 10.0 mi ESE 3.5 mph - N/A   Clear
5:15 AM 34.3 °F - 25.7 °F 71% 29.92 in 10.0 mi Calm Calm - N/A   Clear
5:35 AM 34.2 °F 31.2 °F 25.5 °F 71% 29.92 in 10.0 mi NNW 3.5 mph - N/A   Clear
5:55 AM 33.8 °F 30.8 °F 25.2 °F 71% 29.92 in 10.0 mi NNW 3.5 mph - N/A   Clear
6:15 AM 33.8 °F - 25.7 °F 72% 29.93 in 10.0 mi Calm Calm - N/A   Clear
6:35 AM 32.9 °F - 24.4 °F 71% 29.93 in 10.0 mi Calm Calm - N/A   Clear
6:55 AM 32.9 °F - 24.8 °F 72% 29.93 in 10.0 mi Calm Calm - N/A   Clear
7:15 AM 32.9 °F - 24.8 °F 72% 29.93 in 10.0 mi Calm Calm - N/A   Clear
7:35 AM 32.4 °F 29.1 °F 24.1 °F 72% 29.93 in 10.0 mi SSW 3.5 mph - N/A   Clear
7:55 AM 32.0 °F - 23.5 °F 71% 29.93 in 10.0 mi Calm Calm - N/A   Clear
8:15 AM 34.3 °F - 25.0 °F 69% 29.93 in 10.0 mi Calm Calm - N/A   Clear
8:35 AM 36.9 °F - 25.9 °F 64% 29.93 in 10.0 mi Calm Calm - N/A   Clear
9:15 AM 43.9 °F - 29.1 °F 56% 29.95 in 10.0 mi Calm Calm - N/A   Clear
9:35 AM 45.3 °F - 28.9 °F 53% 29.95 in 10.0 mi Calm Calm - N/A   Clear
9:55 AM 48.6 °F - 29.5 °F 48% 29.95 in 10.0 mi Calm Calm - N/A   Clear
10:15 AM 53.2 °F - 30.9 °F 43% 29.95 in 10.0 mi Calm Calm - N/A   Clear
10:35 AM 57.6 °F - 32.2 °F 38% 29.95 in 10.0 mi Calm Calm - N/A   Clear
10:55 AM 60.6 °F - 32.9 °F 35% 29.95 in 10.0 mi Calm Calm - N/A   Clear
11:55 AM 69.4 °F - 33.8 °F 27% 29.91 in 10.0 mi SE 3.5 mph - N/A   Clear
12:15 PM 70.9 °F - 33.4 °F 25% 29.90 in 10.0 mi Calm Calm - N/A   Clear
12:55 PM 73.8 °F - 33.1 °F 23% 29.87 in 10.0 mi Calm Calm - N/A   Clear
1:15 PM 80.2 °F - 30.4 °F 16% 29.86 in 10.0 mi West 15.0 mph 23.0 mph N/A   Clear
1:35 PM 80.6 °F - 30.2 °F 16% 29.85 in 10.0 mi West 16.1 mph 20.7 mph N/A   Clear
1:55 PM 81.7 °F - 30.2 °F 15% 29.84 in 10.0 mi WSW 18.4 mph - N/A   Clear
2:15 PM 81.5 °F - 30.0 °F 15% 29.83 in 10.0 mi West 16.1 mph - N/A   Clear
3:15 PM 82.2 °F - 29.3 °F 15% 29.81 in 10.0 mi WSW 17.3 mph - N/A   Clear
3:35 PM 82.4 °F - 29.1 °F 14% 29.81 in 10.0 mi WSW 17.3 mph 23.0 mph N/A   Clear
3:55 PM 82.2 °F - 29.3 °F 15% 29.81 in 10.0 mi WSW 16.1 mph 23.0 mph N/A   Clear
4:15 PM 81.5 °F - 28.9 °F 15% 29.80 in 10.0 mi WSW 16.1 mph 20.7 mph N/A   Clear
4:35 PM 81.0 °F - 28.6 °F 15% 29.80 in 10.0 mi West 13.8 mph - N/A   Clear
4:55 PM 79.5 °F - 28.0 °F 15% 29.80 in 10.0 mi WSW 11.5 mph - N/A   Clear
5:15 PM 77.7 °F - 27.5 °F 16% 29.80 in 10.0 mi WSW 9.2 mph - N/A   Clear
5:35 PM 72.9 °F - 26.4 °F 18% 29.81 in 10.0 mi WSW 5.8 mph - N/A   Clear
5:55 PM 70.3 °F - 25.7 °F 19% 29.81 in 10.0 mi SW 6.9 mph - N/A   Clear
6:35 PM 65.1 °F - 26.4 °F 23% 29.82 in 10.0 mi West 6.9 mph - N/A   Clear
6:55 PM 64.2 °F - 25.7 °F 23% 29.83 in 10.0 mi NW 3.5 mph - N/A   Clear
7:15 PM 66.0 °F - 26.4 °F 22% 29.83 in 10.0 mi West 5.8 mph - N/A   Clear
7:35 PM 64.6 °F - 25.3 °F 23% 29.83 in 10.0 mi West 4.6 mph - N/A   Clear
8:35 PM 59.4 °F - 25.0 °F 27% 29.85 in 10.0 mi WSW 4.6 mph - N/A   Clear
8:55 PM 54.3 °F - 24.4 °F 31% 29.85 in 10.0 mi SW 4.6 mph - N/A   Clear
9:15 PM 56.3 °F - 24.8 °F 30% 29.85 in 10.0 mi WSW 4.6 mph - N/A   Clear
9:35 PM 54.1 °F - 23.9 °F 31% 29.85 in 10.0 mi Calm Calm - N/A   Clear
9:55 PM 52.0 °F - 23.9 °F 34% 29.86 in 10.0 mi WSW 3.5 mph - N/A   Clear
10:35 PM 50.9 °F - 23.7 °F 35% 29.85 in 10.0 mi NNW 3.5 mph - N/A   Clear
10:55 PM 50.0 °F - 24.3 °F 37% 29.85 in 10.0 mi WNW 5.8 mph - N/A   Clear
11:15 PM 49.6 °F - 23.9 °F 37% 29.85 in 10.0 mi WSW 6.9 mph - N/A   Clear
11:35 PM 48.9 °F - 23.7 °F 37% 29.85 in 10.0 mi WSW 4.6 mph - N/A   Clear
11:55 PM 49.3 °F - 23.9 °F 37% 29.85 in 10.0 mi West 6.9 mph - N/A   Clear